Tracking 35334 objects as of 12-Sep-2026
HD Live streaming from Space Station
objects crossing your sky now

ASTROCAST-0402

Track ASTROCAST-0402 now!
10-day predictions
ASTROCAST-0402 is classified as:


NORAD ID: 55109
Int'l Code: 2023-001DE
Launch date: January 3, 2023
Source: (SWTZ)
Launch site: AIR FORCE EASTERN TEST RANGE (AFETR)

Uplink (MHz):
Downlink (MHz):
Beacon (MHz):
Mode:
Call sign:
Status: Unknown

Your satellite tracking list
Your tracking list is empty




NASA's NSSDC Master Catalog

Two Line Element Set (TLE):
1 55109U 23001DE  26254.20690535  .00009753  00000-0  33270-3 0  9997
2 55109  97.5579 348.8004 0003093 297.6931  62.3996 15.30554165157680
Source of the keplerian elements: AFSPC